Pilot Mountain, NC

6:23 PM EST on February 08, 2016 (GMT -0500)
Mount Airy-Surry County

Weather History for KMWK - January, 2013

Change the Weather History Date:

Friday, January 4, 2013

  Actual Average (KINT) Record (KINT)
Temperature  
Mean Temperature 40 °F -  
Max Temperature 49 °F 49 °F 73 °F (2005)
Min Temperature 31 °F 32 °F 9 °F (1979)
Degree Days  
Heating Degree Days 25    
Moisture  
Dew Point 19 °F    
Average Humidity 48    
Maximum Humidity 67    
Minimum Humidity 23    
Precipitation  
Precipitation 0.00 in - - ()
Sea Level Pressure  
Sea Level Pressure 30.24 in    
Wind  
Wind Speed 5 mph (WNW)    
Max Wind Speed 14 mph    
Max Gust Speed 25 mph    
Visibility 10 miles    
Events      
Averages and records for this station are not official NWS values.
T = Trace of Precipitation, MM = Missing Value Source: NWS Daily Summary

Daily Weather History Graph

Daily Weather History Graph

Search for Another Location

Airport or City:

Trip Planner

Search our weather history database for the weather conditions in past years. The results will help you decide how hot, cold, wet, or windy it might be!

Date:

Astronomy

Jan. 04, 2013 Rise Set
Actual Time 7:34 AM EST 5:20 PM EST
Civil Twilight 7:05 AM EST 5:48 PM EST
Nautical Twilight 6:33 AM EST 6:21 PM EST
Astronomical Twilight 6:02 AM EST 6:52 PM EST
Moon No Moon Rise 11:29 AM EST (1/4)
Length of Visible Light 10h 43m
Length of Day
9h 45m
Waning Gibbous, 55% of the Moon is Illuminated
Jan 4
Waning Gibbous
Jan 4
Last Quarter
Jan 11
New
Jan 18
First Quarter
Jan 26
Full

Hourly Weather History & Observations

Time (EST) Temp. Windchill Dew Point Humidity Pressure Visibility Wind Dir Wind Speed Gust Speed Precip Events Conditions
12:15 AM 35.1 °F 32.2 °F 19.9 °F 54% 30.22 in 10.0 mi WNW 3.5 mph - N/A   Clear
12:35 AM 34.7 °F - 19.6 °F 54% 30.22 in 10.0 mi Calm Calm - N/A   Clear
12:55 AM 34.2 °F - 19.8 °F 56% 30.22 in 10.0 mi Calm Calm - N/A   Clear
1:15 AM 33.8 °F - 19.9 °F 57% 30.22 in 10.0 mi Calm Calm - N/A   Clear
1:35 AM 33.4 °F - 20.8 °F 60% 30.23 in 10.0 mi Calm Calm - N/A   Clear
1:55 AM 33.8 °F 30.8 °F 21.0 °F 60% 30.24 in 10.0 mi West 3.5 mph - N/A   Clear
2:35 AM 33.4 °F 30.4 °F 21.9 °F 63% 30.24 in 10.0 mi NW 3.5 mph - N/A   Clear
2:55 AM 31.8 °F - 22.1 °F 67% 30.25 in 10.0 mi Calm Calm - N/A   Clear
3:35 AM 33.6 °F 28.4 °F 22.3 °F 63% 30.24 in 10.0 mi WNW 5.8 mph - N/A   Clear
3:55 AM 34.0 °F 26.0 °F 22.3 °F 62% 30.23 in 10.0 mi WNW 10.4 mph 16.1 mph N/A   Clear
4:15 AM 33.4 °F 30.4 °F 21.9 °F 63% 30.24 in 10.0 mi WNW 3.5 mph - N/A   Clear
6:55 AM 32.4 °F 26.9 °F 20.1 °F 61% 30.25 in 10.0 mi NNW 5.8 mph - N/A   Clear
7:15 AM 32.0 °F 25.6 °F 20.1 °F 62% 30.25 in 10.0 mi NNW 6.9 mph - N/A   Clear
7:35 AM 32.0 °F 24.8 °F 20.3 °F 62% 30.25 in 10.0 mi NW 8.1 mph - N/A   Clear
7:55 AM 32.0 °F 24.8 °F 20.3 °F 62% 30.25 in 10.0 mi NW 8.1 mph - N/A   Clear
8:15 AM 32.4 °F 29.1 °F 20.1 °F 61% 30.25 in 10.0 mi WNW 3.5 mph - N/A   Clear
8:35 AM 33.1 °F - 21.4 °F 62% 30.27 in 10.0 mi Calm Calm - N/A   Clear
8:55 AM 34.0 °F 31.0 °F 21.2 °F 60% 30.27 in 10.0 mi WNW 3.5 mph - N/A   Clear
9:15 AM 35.1 °F 30.1 °F 21.6 °F 58% 30.28 in 10.0 mi West 5.8 mph - N/A   Clear
9:35 AM 35.6 °F 30.7 °F 21.6 °F 57% 30.28 in 10.0 mi WNW 5.8 mph - N/A   Clear
10:15 AM 37.6 °F 32.3 °F 20.8 °F 51% 30.29 in 10.0 mi West 6.9 mph - N/A   Clear
10:35 AM 38.3 °F 32.5 °F 20.8 °F 50% 30.29 in 10.0 mi WSW 8.1 mph - N/A   Clear
10:55 AM 38.8 °F 33.2 °F 20.1 °F 47% 30.29 in 10.0 mi West 8.1 mph - N/A   Clear
11:15 AM 40.3 °F 36.3 °F 19.4 °F 43% 30.27 in 10.0 mi West 5.8 mph - N/A   Clear
11:35 AM 41.5 °F 38.6 °F 19.0 °F 41% 30.26 in 10.0 mi WNW 4.6 mph - N/A   Clear
11:55 AM 42.6 °F 39.0 °F 18.9 °F 39% 30.24 in 10.0 mi NW 5.8 mph - N/A   Clear
12:15 PM 43.9 °F 39.9 °F 17.8 °F 35% 30.24 in 10.0 mi West 6.9 mph - N/A   Clear
12:35 PM 45.1 °F 42.0 °F 18.3 °F 34% 30.22 in 10.0 mi WSW 5.8 mph - N/A   Clear
12:55 PM 45.9 °F 42.9 °F 15.8 °F 30% 30.21 in 10.0 mi NW 5.8 mph - N/A   Clear
1:15 PM 47.3 °F - 13.8 °F 26% 30.20 in 10.0 mi West 8.1 mph - N/A   Clear
1:35 PM 46.9 °F - 13.3 °F 26% 30.20 in 10.0 mi West 5.8 mph 9.2 mph N/A   Clear
1:55 PM 48.0 °F - 12.0 °F 24% 30.19 in 10.0 mi West 10.4 mph 16.1 mph N/A   Clear
2:15 PM 47.7 °F - 11.7 °F 23% 30.18 in 10.0 mi WNW 8.1 mph - N/A   Clear
2:35 PM 49.3 °F - 12.6 °F 23% 30.18 in 10.0 mi West 9.2 mph 16.1 mph N/A   Clear
2:55 PM 48.2 °F - 12.7 °F 24% 30.19 in 10.0 mi NW 9.2 mph - N/A   Clear
3:15 PM 45.9 °F 41.2 °F 13.5 °F 27% 30.20 in 10.0 mi NW 9.2 mph 17.3 mph N/A   Scattered Clouds
3:35 PM 44.8 °F 39.9 °F 16.0 °F 31% 30.20 in 10.0 mi NW 9.2 mph - N/A   Overcast
3:55 PM 43.7 °F 37.7 °F 16.0 °F 33% 30.21 in 10.0 mi NW 11.5 mph 18.4 mph N/A   Overcast
4:15 PM 42.8 °F 37.0 °F 16.5 °F 35% 30.21 in 10.0 mi NW 10.4 mph 16.1 mph N/A   Overcast
4:35 PM 41.9 °F 34.6 °F 19.0 °F 40% 30.22 in 10.0 mi NW 13.8 mph 17.3 mph N/A   Overcast
4:55 PM 41.0 °F 34.7 °F 19.0 °F 41% 30.22 in 10.0 mi WNW 10.4 mph - N/A   Scattered Clouds
5:15 PM 40.8 °F 37.8 °F 18.3 °F 40% 30.22 in 10.0 mi WNW 4.6 mph - N/A   Clear
5:35 PM 39.9 °F 34.5 °F 19.0 °F 43% 30.23 in 10.0 mi WNW 8.1 mph - N/A   Clear
5:55 PM 38.8 °F 31.2 °F 18.7 °F 44% 30.24 in 10.0 mi NW 12.7 mph 18.4 mph N/A   Clear
6:15 PM 38.7 °F 32.9 °F 19.2 °F 46% 30.24 in 10.0 mi WNW 8.1 mph - N/A   Clear
6:55 PM 37.9 °F 32.7 °F 19.8 °F 48% 30.26 in 10.0 mi West 6.9 mph - N/A   Clear
7:35 PM 37.8 °F 31.3 °F 20.3 °F 49% 30.28 in 10.0 mi WNW 9.2 mph 19.6 mph N/A   Clear
7:55 PM 36.9 °F 31.4 °F 21.0 °F 53% 30.28 in 10.0 mi NW 6.9 mph - N/A   Clear
8:15 PM 36.9 °F 30.1 °F 20.5 °F 52% 30.28 in 10.0 mi NW 9.2 mph - N/A   Clear
8:35 PM 36.7 °F 29.4 °F 20.3 °F 52% 30.28 in 10.0 mi NW 10.4 mph 20.7 mph N/A   Clear
8:55 PM 36.5 °F 28.7 °F 19.9 °F 51% 30.28 in 10.0 mi NW 11.5 mph 25.3 mph N/A   Clear
9:15 PM 35.8 °F 29.4 °F 19.9 °F 53% 30.28 in 10.0 mi NW 8.1 mph 17.3 mph N/A   Clear
9:35 PM 35.1 °F 28.6 °F 19.9 °F 54% 30.28 in 10.0 mi NW 8.1 mph - N/A   Clear
9:55 PM 35.1 °F 32.2 °F 19.9 °F 54% 30.27 in 10.0 mi WNW 3.5 mph - N/A   Clear
10:15 PM 35.1 °F 32.2 °F 19.8 °F 54% 30.28 in 10.0 mi WNW 3.5 mph - N/A   Clear
10:35 PM 35.2 °F 32.4 °F 19.8 °F 53% 30.28 in 10.0 mi WSW 3.5 mph - N/A   Clear
10:55 PM 33.8 °F 30.8 °F 19.9 °F 57% 30.28 in 10.0 mi WNW 3.5 mph - N/A   Clear
11:35 PM 34.2 °F 31.2 °F 20.3 °F 57% 30.27 in 10.0 mi West 3.5 mph - N/A   Clear